EN

Hourly Weather Aathal

Today, 14 June, Monday

Time Temperature Precipitation Wind Pressure Humidity
00:00 +13°C° 0 mm 1 mps 718 mmHg 92%
01:00 +13°C° 0 mm 1 mps 718 mmHg 93%
02:00 +13°C° 0 mm 1 mps 718 mmHg 93%
03:00 +12°C° 0 mm 1 mps 717 mmHg 93%
04:00 +12°C° 0 mm 1 mps 717 mmHg 93%
05:00 +13°C° 0 mm 1 mps 717 mmHg 88%
06:00 +14°C° 0 mm 1 mps 718 mmHg 83%
07:00 +15°C° 0 mm 0 mps 718 mmHg 79%
08:00 +19°C° 0 mm 1 mps 718 mmHg 72%
09:00 +21°C° 0 mm 1 mps 718 mmHg 65%
10:00 +23°C° 0 mm 2 mps 718 mmHg 57%
11:00 +25°C° 0 mm 2 mps 717 mmHg 53%
12:00 +26°C° 0 mm 2 mps 717 mmHg 48%
13:00 +27°C° 0 mm 2 mps 717 mmHg 43%
14:00 +27°C° 0 mm 2 mps 717 mmHg 44%
15:00 +27°C° 0 mm 2 mps 717 mmHg 44%
16:00 +27°C° 0 mm 2 mps 716 mmHg 45%
17:00 +26°C° 0 mm 2 mps 716 mmHg 55%
18:00 +24°C° 0 mm 2 mps 716 mmHg 65%
19:00 +23°C° 0 mm 1 mps 716 mmHg 75%
20:00 +21°C° 0 mm 1 mps 716 mmHg 80%
21:00 +19°C° 0 mm 1 mps 716 mmHg 85%
22:00 +16°C° 0 mm 1 mps 716 mmHg 90%
23:00 +16°C° 0 mm 1 mps 716 mmHg 90%

Tomorrow, 15 June, Tuesday

Time Temperature Precipitation Wind Pressure Humidity
00:00 +15°C° 0 mm 1 mps 716 mmHg 91%
01:00 +15°C° 0 mm 1 mps 716 mmHg 91%
02:00 +14°C° 0 mm 1 mps 716 mmHg 91%
03:00 +14°C° 0 mm 1 mps 715 mmHg 91%
04:00 +14°C° 0 mm 1 mps 715 mmHg 91%
05:00 +14°C° 0 mm 0 mps 716 mmHg 87%
06:00 +16°C° 0 mm 0 mps 716 mmHg 82%
07:00 +17°C° 0 mm 0 mps 716 mmHg 77%
08:00 +19°C° 0 mm 0 mps 716 mmHg 70%
09:00 +23°C° 0 mm 1 mps 716 mmHg 62%
10:00 +25°C° 0 mm 1 mps 716 mmHg 54%
11:00 +26°C° 0 mm 1 mps 716 mmHg 50%
12:00 +27°C° 0 mm 1 mps 716 mmHg 46%
13:00 +28°C° 0 mm 1 mps 716 mmHg 42%
14:00 +28°C° 0 mm 1 mps 716 mmHg 42%
15:00 +28°C° 0 mm 1 mps 716 mmHg 41%
16:00 +28°C° 0 mm 1 mps 716 mmHg 41%
17:00 +27°C° 0 mm 1 mps 716 mmHg 51%
18:00 +25°C° 0 mm 1 mps 715 mmHg 61%
19:00 +24°C° 0 mm 1 mps 715 mmHg 71%
20:00 +22°C° 0 mm 1 mps 715 mmHg 75%
21:00 +20°C° 0 mm 1 mps 715 mmHg 79%
22:00 +18°C° 0 mm 1 mps 715 mmHg 82%
23:00 +18°C° 0 mm 1 mps 715 mmHg 83%

Day after tomorrow, 16 June, Wednesday

Time Temperature Precipitation Wind Pressure Humidity
00:00 +16°C° 0 mm 1 mps 715 mmHg 83%
01:00 +16°C° 0 mm 1 mps 714 mmHg 84%
02:00 +16°C° 0 mm 1 mps 714 mmHg 84%
03:00 +15°C° 0 mm 1 mps 714 mmHg 85%
04:00 +15°C° 0 mm 1 mps 714 mmHg 85%
05:00 +15°C° 0 mm 0 mps 714 mmHg 81%
06:00 +17°C° 0 mm 0 mps 714 mmHg 77%
07:00 +18°C° 0 mm 0 mps 714 mmHg 72%
08:00 +20°C° 0 mm 0 mps 714 mmHg 66%
09:00 +24°C° 0 mm 1 mps 714 mmHg 59%
10:00 +26°C° 0 mm 1 mps 714 mmHg 52%
11:00 +27°C° 0 mm 1 mps 714 mmHg 48%
12:00 +28°C° 0 mm 1 mps 714 mmHg 44%
13:00 +29°C° 0 mm 1 mps 714 mmHg 40%
14:00 +29°C° 0 mm 1 mps 713 mmHg 40%
15:00 +30°C° 0 mm 1 mps 713 mmHg 40%
16:00 +30°C° 0 mm 1 mps 713 mmHg 40%
17:00 +28°C° 0 mm 1 mps 713 mmHg 51%
18:00 +26°C° 0 mm 1 mps 713 mmHg 61%
19:00 +25°C° 0 mm 1 mps 712 mmHg 71%
20:00 +23°C° 0 mm 1 mps 712 mmHg 74%
21:00 +22°C° 0 mm 1 mps 712 mmHg 78%
22:00 +20°C° 0 mm 1 mps 712 mmHg 81%
23:00 +20°C° 0 mm 1 mps 712 mmHg 81%

17 June, Thursday

Time Temperature Precipitation Wind Pressure Humidity
00:00 +20°C° 0 mm 1 mps 712 mmHg 82%
01:00 +19°C° 0 mm 1 mps 712 mmHg 82%
02:00 +19°C° 0 mm 1 mps 712 mmHg 83%
03:00 +19°C° 0 mm 1 mps 712 mmHg 83%
04:00 +18°C° 0 mm 1 mps 712 mmHg 84%
05:00 +20°C° 0 mm 1 mps 713 mmHg 81%
06:00 +19°C° 0 mm 0 mps 713 mmHg 78%
07:00 +20°C° 0 mm 0 mps 713 mmHg 75%
08:00 +22°C° 0 mm 0 mps 713 mmHg 68%
09:00 +24°C° 0 mm 0 mps 713 mmHg 61%
10:00 +26°C° 0 mm 0 mps 714 mmHg 54%
11:00 +29°C° 0 mm 1 mps 713 mmHg 51%
12:00 +30°C° 0 mm 1 mps 713 mmHg 47%
13:00 +31°C° 0 mm 2 mps 713 mmHg 43%
14:00 +31°C° 0 mm 2 mps 713 mmHg 44%
15:00 +31°C° 0 mm 2 mps 712 mmHg 45%
16:00 +31°C° 0 mm 2 mps 712 mmHg 45%
17:00 +29°C° 0 mm 2 mps 712 mmHg 54%
18:00 +28°C° 0 mm 2 mps 712 mmHg 62%
19:00 +26°C° 0 mm 2 mps 711 mmHg 70%
20:00 +25°C° 0 mm 2 mps 711 mmHg 75%
21:00 +23°C° 0 mm 2 mps 711 mmHg 80%
22:00 +20°C° 0 mm 2 mps 712 mmHg 85%
23:00 +19°C° 0.7 mm 2 mps 712 mmHg 88%

18 June, Friday

Time Temperature Precipitation Wind Pressure Humidity
00:00 +18°C° 0.7 mm 2 mps 713 mmHg 91%
01:00 +18°C° 0.7 mm 3 mps 714 mmHg 94%
02:00 +17°C° 0 mm 2 mps 713 mmHg 93%
03:00 +17°C° 0 mm 2 mps 713 mmHg 91%
04:00 +18°C° 0 mm 1 mps 713 mmHg 90%
05:00 +19°C° 0 mm 1 mps 713 mmHg 89%
06:00 +20°C° 0 mm 1 mps 713 mmHg 88%
07:00 +18°C° 0 mm 0 mps 714 mmHg 87%
08:00 +20°C° 0 mm 0 mps 714 mmHg 77%
09:00 +24°C° 0 mm 1 mps 714 mmHg 68%
10:00 +27°C° 0 mm 1 mps 714 mmHg 59%
11:00 +27°C° 0.1 mm 1 mps 714 mmHg 55%
12:00 +28°C° 0.1 mm 2 mps 714 mmHg 51%
13:00 +29°C° 0.1 mm 2 mps 714 mmHg 48%
14:00 +29°C° 0.1 mm 2 mps 714 mmHg 48%
15:00 +29°C° 0.1 mm 2 mps 714 mmHg 49%
16:00 +29°C° 0.1 mm 2 mps 714 mmHg 50%
17:00 +28°C° 0.1 mm 1 mps 714 mmHg 58%
18:00 +27°C° 0.1 mm 1 mps 714 mmHg 66%
19:00 +26°C° 0.1 mm 1 mps 714 mmHg 74%
20:00 +24°C° 0 mm 1 mps 714 mmHg 78%
21:00 +23°C° 0 mm 1 mps 714 mmHg 82%
22:00 +21°C° 0 mm 1 mps 714 mmHg 86%
23:00 +20°C° 0 mm 1 mps 714 mmHg 86%

19 June, Saturday

Time Temperature Precipitation Wind Pressure Humidity
00:00 +20°C° 0 mm 1 mps 714 mmHg 87%
01:00 +19°C° 0 mm 1 mps 714 mmHg 87%
02:00 +19°C° 0 mm 1 mps 714 mmHg 86%
03:00 +19°C° 0 mm 1 mps 714 mmHg 85%
04:00 +18°C° 0 mm 1 mps 715 mmHg 84%
05:00 +20°C° 0 mm 1 mps 715 mmHg 81%
06:00 +19°C° 0 mm 0 mps 715 mmHg 78%
07:00 +20°C° 0 mm 0 mps 715 mmHg 75%
08:00 +22°C° 0 mm 0 mps 715 mmHg 69%
09:00 +26°C° 0 mm 1 mps 715 mmHg 63%
10:00 +27°C° 0 mm 1 mps 715 mmHg 57%
11:00 +29°C° 0 mm 1 mps 715 mmHg 54%
12:00 +30°C° 0 mm 2 mps 715 mmHg 50%
13:00 +31°C° 0 mm 2 mps 714 mmHg 46%
14:00 +31°C° 0 mm 3 mps 714 mmHg 46%
15:00 +31°C° 0 mm 3 mps 714 mmHg 47%
16:00 +31°C° 0 mm 3 mps 713 mmHg 47%
17:00 +30°C° 0 mm 3 mps 713 mmHg 56%
18:00 +29°C° 0 mm 3 mps 712 mmHg 64%
19:00 +27°C° 0 mm 3 mps 712 mmHg 73%
20:00 +26°C° 0 mm 2 mps 712 mmHg 75%
21:00 +25°C° 0 mm 2 mps 712 mmHg 78%
22:00 +24°C° 0 mm 2 mps 712 mmHg 80%
23:00 +23°C° 0 mm 2 mps 712 mmHg 81%
Show more